Time,TemperatureF,DewpointF,PressureIn,WindDirection,WindDirectionDegrees,WindSpeedMPH,WindSpeedGustMPH,Humidity,HourlyPrecipIn,Conditions,Clouds,dailyrainin,SoftwareType,DateUTC
2013-05-05 00:02:00,71.2,62.2,29.74,South,180,0.0,0.0,74,0.00,,,0.00,WSDL version 420,2013-05-05 04:02:00,
2013-05-05 00:07:00,71.1,62.4,29.74,South,180,0.0,0.0,74,0.00,,,0.00,WSDL version 420,2013-05-05 04:07:00,
2013-05-05 00:12:00,71.0,62.6,29.74,South,180,0.0,0.0,75,0.00,,,0.00,WSDL version 420,2013-05-05 04:12:00,
2013-05-05 00:17:00,70.7,62.4,29.74,SSW,203,0.0,0.0,75,0.00,,,0.00,WSDL version 420,2013-05-05 04:17:00,
2013-05-05 00:22:00,70.7,62.4,29.74,SSW,212,0.0,0.0,75,0.00,,,0.00,WSDL version 420,2013-05-05 04:22:00,
2013-05-05 00:27:00,70.5,62.6,29.74,SW,225,0.0,0.0,76,0.00,,,0.00,WSDL version 420,2013-05-05 04:27:00,
2013-05-05 00:32:00,70.4,62.5,29.74,SW,225,0.0,0.0,76,0.00,,,0.00,WSDL version 420,2013-05-05 04:32:00,
2013-05-05 00:37:00,70.3,62.3,29.74,SW,225,0.0,0.0,76,0.00,,,0.00,WSDL version 420,2013-05-05 04:37:00,
2013-05-05 00:42:00,70.1,62.3,29.74,SW,225,0.0,0.0,77,0.00,,,0.00,WSDL version 420,2013-05-05 04:42:00,
2013-05-05 00:47:00,70.0,62.4,29.74,SW,225,0.0,0.0,77,0.00,,,0.00,WSDL version 420,2013-05-05 04:47:00,
2013-05-05 00:52:00,70.0,62.4,29.74,SW,225,0.0,0.0,77,0.00,,,0.00,WSDL version 420,2013-05-05 04:52:00,
2013-05-05 00:57:00,70.0,62.8,29.74,SW,225,0.0,0.0,78,0.00,,,0.00,WSDL version 420,2013-05-05 04:57:00,
2013-05-05 01:02:00,69.9,62.7,29.77,SW,225,0.0,0.0,78,0.00,,,0.00,WSDL version 420,2013-05-05 05:02:00,
2013-05-05 01:07:00,69.7,62.7,29.77,SW,225,0.0,0.0,79,0.00,,,0.00,WSDL version 420,2013-05-05 05:07:00,
2013-05-05 01:12:00,69.6,62.8,29.77,SW,225,0.0,0.0,79,0.00,,,0.00,WSDL version 420,2013-05-05 05:12:00,
2013-05-05 01:17:00,69.4,62.6,29.74,SW,225,0.0,0.0,79,0.00,,,0.00,WSDL version 420,2013-05-05 05:17:00,
2013-05-05 01:22:00,69.3,62.6,29.74,SW,225,0.0,0.0,80,0.00,,,0.00,WSDL version 420,2013-05-05 05:22:00,
2013-05-05 01:27:00,69.1,62.7,29.74,SW,225,0.0,0.0,80,0.00,,,0.00,WSDL version 420,2013-05-05 05:27:00,
2013-05-05 01:32:00,69.0,62.6,29.74,SW,225,0.0,0.0,80,0.00,,,0.00,WSDL version 420,2013-05-05 05:32:00,
2013-05-05 01:37:00,68.9,62.5,29.74,SW,225,0.0,0.0,80,0.00,,,0.00,WSDL version 420,2013-05-05 05:37:00,
2013-05-05 01:42:00,68.9,62.5,29.74,SW,225,0.0,0.0,81,0.00,,,0.00,WSDL version 420,2013-05-05 05:42:00,
2013-05-05 01:47:00,68.8,62.8,29.74,NW,318,0.0,0.0,81,0.00,,,0.00,WSDL version 420,2013-05-05 05:47:00,
2013-05-05 01:52:00,68.7,62.7,29.74,NNE,23,0.0,0.0,81,0.00,,,0.00,WSDL version 420,2013-05-05 05:52:00,
2013-05-05 01:57:00,68.7,62.7,29.74,NNE,23,0.0,0.0,81,0.00,,,0.00,WSDL version 420,2013-05-05 05:57:00,
2013-05-05 02:02:00,68.6,62.6,29.71,NNE,23,0.0,0.0,81,0.00,,,0.00,WSDL version 420,2013-05-05 06:02:00,
2013-05-05 02:07:00,68.5,62.5,29.71,NNE,23,0.0,0.0,81,0.00,,,0.00,WSDL version 420,2013-05-05 06:07:00,
2013-05-05 02:12:00,68.4,62.7,29.71,West,259,0.0,0.0,82,0.00,,,0.00,WSDL version 420,2013-05-05 06:12:00,
2013-05-05 02:17:00,68.3,62.7,29.71,SSW,203,0.0,0.0,82,0.00,,,0.00,WSDL version 420,2013-05-05 06:17:00,
2013-05-05 02:22:00,68.2,62.6,29.71,North,360,0.0,0.0,82,0.00,,,0.00,WSDL version 420,2013-05-05 06:22:00,
2013-05-05 02:27:00,68.3,62.6,29.71,North,360,0.0,0.0,82,0.00,,,0.00,WSDL version 420,2013-05-05 06:27:00,
2013-05-05 02:32:00,68.2,62.6,29.71,NNE,13,0.0,0.0,82,0.00,,,0.00,WSDL version 420,2013-05-05 06:32:00,
2013-05-05 02:37:00,68.2,62.6,29.71,South,180,0.0,0.0,82,0.00,,,0.00,WSDL version 420,2013-05-05 06:37:00,
2013-05-05 02:42:00,68.0,62.4,29.71,South,180,0.0,0.0,82,0.00,,,0.00,WSDL version 420,2013-05-05 06:42:00,
2013-05-05 02:47:00,68.0,62.7,29.71,South,180,0.0,0.0,83,0.00,,,0.00,WSDL version 420,2013-05-05 06:47:00,
2013-05-05 02:52:00,68.0,62.8,29.71,South,180,0.0,0.0,83,0.00,,,0.00,WSDL version 420,2013-05-05 06:52:00,
2013-05-05 02:57:00,67.8,62.6,29.71,South,180,0.0,0.0,83,0.00,,,0.00,WSDL version 420,2013-05-05 06:57:00,
2013-05-05 03:02:00,67.8,63.0,29.68,South,180,0.0,0.0,84,0.00,,,0.00,WSDL version 420,2013-05-05 07:02:00,
2013-05-05 03:07:00,67.7,62.9,29.68,South,180,0.0,0.0,84,0.00,,,0.00,WSDL version 420,2013-05-05 07:07:00,
2013-05-05 03:12:00,67.6,62.8,29.68,South,180,0.0,0.0,84,0.00,,,0.00,WSDL version 420,2013-05-05 07:12:00,
2013-05-05 03:17:00,67.6,62.8,29.68,South,180,0.0,0.0,84,0.00,,,0.00,WSDL version 420,2013-05-05 07:17:00,
2013-05-05 03:22:00,67.6,63.1,29.68,South,180,0.0,0.0,86,0.00,,,0.00,WSDL version 420,2013-05-05 07:22:00,
2013-05-05 03:27:00,67.6,63.2,29.68,South,180,0.0,0.0,86,0.00,,,0.00,WSDL version 420,2013-05-05 07:27:00,
2013-05-05 03:32:00,67.5,63.0,29.68,South,180,0.0,0.0,86,0.00,,,0.00,WSDL version 420,2013-05-05 07:32:00,
2013-05-05 03:37:00,67.5,63.0,29.68,South,180,0.0,0.0,86,0.00,,,0.00,WSDL version 420,2013-05-05 07:37:00,
2013-05-05 03:42:00,67.5,63.0,29.68,South,180,0.0,0.0,86,0.00,,,0.00,WSDL version 420,2013-05-05 07:42:00,
2013-05-05 03:47:00,67.5,63.0,29.68,South,180,0.0,0.0,86,0.00,,,0.00,WSDL version 420,2013-05-05 07:47:00,
2013-05-05 03:52:00,67.3,62.9,29.68,SSE,158,0.0,0.0,86,0.00,,,0.00,WSDL version 420,2013-05-05 07:52:00,
2013-05-05 03:57:00,67.5,63.3,29.68,West,270,0.0,0.0,87,0.00,,,0.00,WSDL version 420,2013-05-05 07:57:00,
2013-05-05 04:02:00,67.5,63.3,29.71,SSW,205,0.0,0.0,87,0.00,,,0.00,WSDL version 420,2013-05-05 08:02:00,
2013-05-05 04:07:00,67.5,63.3,29.71,NNW,334,0.0,0.0,87,0.00,,,0.00,WSDL version 420,2013-05-05 08:07:00,
2013-05-05 04:12:00,67.5,63.3,29.71,NNW,328,0.0,0.0,87,0.00,,,0.00,WSDL version 420,2013-05-05 08:12:00,
2013-05-05 04:17:00,67.5,63.3,29.71,WNW,285,0.0,0.0,87,0.00,,,0.00,WSDL version 420,2013-05-05 08:17:00,
2013-05-05 04:22:00,67.5,63.3,29.71,WSW,248,0.0,0.0,87,0.00,,,0.00,WSDL version 420,2013-05-05 08:22:00,
2013-05-05 04:27:00,67.5,63.3,29.71,NE,45,0.0,1.1,87,0.00,,,0.00,WSDL version 420,2013-05-05 08:27:00,
2013-05-05 04:32:00,67.5,63.6,29.71,West,270,0.0,1.1,87,0.00,,,0.00,WSDL version 420,2013-05-05 08:32:00,
2013-05-05 04:37:00,67.5,63.7,29.71,WNW,293,0.0,0.0,88,0.00,,,0.00,WSDL version 420,2013-05-05 08:37:00,
2013-05-05 04:42:00,67.5,63.7,29.71,WSW,248,0.0,0.0,88,0.00,,,0.00,WSDL version 420,2013-05-05 08:42:00,
2013-05-05 04:47:00,67.5,63.7,29.71,WSW,248,0.0,0.0,88,0.00,,,0.00,WSDL version 420,2013-05-05 08:47:00,
2013-05-05 04:52:00,67.3,63.5,29.71,WSW,248,0.0,0.0,88,0.00,,,0.00,WSDL version 420,2013-05-05 08:52:00,
2013-05-05 04:57:00,67.3,63.5,29.71,WSW,248,0.0,0.0,88,0.00,,,0.00,WSDL version 420,2013-05-05 08:57:00,
2013-05-05 05:02:00,67.1,63.4,29.71,South,169,0.0,0.0,88,0.00,,,0.00,WSDL version 420,2013-05-05 09:02:00,
2013-05-05 05:07:00,67.1,63.4,29.71,SSE,158,0.0,0.0,88,0.00,,,0.00,WSDL version 420,2013-05-05 09:07:00,
2013-05-05 05:12:00,67.1,63.4,29.71,SSE,158,0.0,0.0,88,0.00,,,0.00,WSDL version 420,2013-05-05 09:12:00,
2013-05-05 05:17:00,67.1,63.5,29.71,SSE,158,0.0,0.0,89,0.00,,,0.00,WSDL version 420,2013-05-05 09:17:00,
2013-05-05 05:22:00,67.1,63.7,29.71,SSE,158,0.0,0.0,89,0.00,,,0.00,WSDL version 420,2013-05-05 09:22:00,
2013-05-05 05:27:00,67.1,63.7,29.71,SSE,158,0.0,0.0,89,0.00,,,0.00,WSDL version 420,2013-05-05 09:27:00,
2013-05-05 05:32:00,67.1,63.7,29.71,SSE,158,0.0,0.0,89,0.00,,,0.00,WSDL version 420,2013-05-05 09:32:00,
2013-05-05 05:37:00,67.1,63.7,29.71,SSE,158,0.0,0.0,89,0.00,,,0.00,WSDL version 420,2013-05-05 09:37:00,
2013-05-05 05:42:00,67.2,63.8,29.71,SSE,158,0.0,0.0,89,0.00,,,0.00,WSDL version 420,2013-05-05 09:42:00,
2013-05-05 05:47:00,67.1,63.8,29.71,SSE,158,0.0,0.0,89,0.00,,,0.00,WSDL version 420,2013-05-05 09:47:00,
2013-05-05 05:52:00,67.3,63.9,29.71,SSE,158,0.0,0.0,89,0.00,,,0.00,WSDL version 420,2013-05-05 09:52:00,
2013-05-05 05:57:00,67.3,63.9,29.71,SSE,158,0.0,0.0,89,0.00,,,0.00,WSDL version 420,2013-05-05 09:57:00,
2013-05-05 06:02:00,67.1,63.8,29.74,SSE,158,0.0,0.0,89,0.00,,,0.00,WSDL version 420,2013-05-05 10:02:00,
2013-05-05 06:07:00,67.1,63.7,29.74,SSE,158,0.0,0.0,89,0.00,,,0.00,WSDL version 420,2013-05-05 10:07:00,
2013-05-05 06:12:00,67.1,63.7,29.74,SSE,158,0.0,0.0,89,0.00,,,0.00,WSDL version 420,2013-05-05 10:12:00,
2013-05-05 06:17:00,67.1,63.7,29.74,SSE,158,0.0,0.0,89,0.00,,,0.00,WSDL version 420,2013-05-05 10:17:00,
2013-05-05 06:22:00,66.9,63.8,29.74,SSE,158,0.0,0.0,89,0.00,,,0.00,WSDL version 420,2013-05-05 10:22:00,
2013-05-05 06:27:00,66.9,63.5,29.74,SSE,158,0.0,0.0,89,0.00,,,0.00,WSDL version 420,2013-05-05 10:27:00,
2013-05-05 06:32:00,66.7,63.4,29.74,SSE,158,0.0,0.0,89,0.00,,,0.00,WSDL version 420,2013-05-05 10:32:00,
2013-05-05 06:37:00,66.7,63.7,29.74,SSE,158,0.0,0.0,90,0.00,,,0.00,WSDL version 420,2013-05-05 10:37:00,
2013-05-05 06:42:00,66.7,63.7,29.74,South,169,0.0,0.0,90,0.00,,,0.00,WSDL version 420,2013-05-05 10:42:00,
2013-05-05 06:47:00,66.9,63.8,29.71,South,180,0.0,0.0,90,0.00,,,0.00,WSDL version 420,2013-05-05 10:47:00,
2013-05-05 06:52:00,67.0,64.0,29.71,South,180,0.0,0.0,90,0.00,,,0.00,WSDL version 420,2013-05-05 10:52:00,
2013-05-05 06:57:00,67.2,64.2,29.71,NE,45,0.0,1.1,91,0.00,,,0.00,WSDL version 420,2013-05-05 10:57:00,
2013-05-05 07:02:00,67.5,64.8,29.74,ESE,107,0.0,1.1,91,0.00,,,0.00,WSDL version 420,2013-05-05 11:02:00,
2013-05-05 07:07:00,67.9,65.2,29.74,WNW,299,0.0,1.1,91,0.00,,,0.00,WSDL version 420,2013-05-05 11:07:00,
2013-05-05 07:12:00,68.1,65.4,29.74,WSW,244,0.0,1.1,91,0.00,,,0.00,WSDL version 420,2013-05-05 11:12:00,
2013-05-05 07:17:00,68.3,65.6,29.74,SW,225,0.0,0.0,91,0.00,,,0.00,WSDL version 420,2013-05-05 11:17:00,
2013-05-05 07:22:00,68.6,66.0,29.74,WSW,241,0.0,2.5,91,0.00,,,0.00,WSDL version 420,2013-05-05 11:22:00,
2013-05-05 07:27:00,68.9,66.2,29.74,NW,305,0.6,2.5,91,0.00,,,0.00,WSDL version 420,2013-05-05 11:27:00,
2013-05-05 07:32:00,69.2,66.3,29.77,NNW,334,1.2,5.8,90,0.00,,,0.00,WSDL version 420,2013-05-05 11:32:00,
2013-05-05 07:37:00,69.4,66.4,29.77,WSW,255,0.7,5.8,90,0.00,,,0.00,WSDL version 420,2013-05-05 11:37:00,
2013-05-05 07:42:00,69.7,66.1,29.77,SW,229,0.6,3.6,88,0.00,,,0.00,WSDL version 420,2013-05-05 11:42:00,
2013-05-05 07:47:00,69.9,65.9,29.77,NW,315,0.2,3.6,87,0.00,,,0.00,WSDL version 420,2013-05-05 11:47:00,
2013-05-05 07:52:00,70.1,65.5,29.77,ENE,59,1.5,2.5,86,0.00,,,0.00,WSDL version 420,2013-05-05 11:52:00,
2013-05-05 07:57:00,70.3,65.2,29.77,WNW,295,2.1,4.0,83,0.00,,,0.00,WSDL version 420,2013-05-05 11:57:00,
2013-05-05 08:02:00,70.5,65.0,29.80,WNW,293,2.1,5.8,82,0.00,,,0.00,WSDL version 420,2013-05-05 12:02:00,
2013-05-05 08:07:00,70.8,64.7,29.80,SSE,163,1.0,5.8,81,0.00,,,0.00,WSDL version 420,2013-05-05 12:07:00,
2013-05-05 08:12:00,71.0,64.6,29.80,NW,324,1.8,3.6,80,0.00,,,0.00,WSDL version 420,2013-05-05 12:12:00,
2013-05-05 08:17:00,71.4,64.6,29.80,NNE,20,1.0,3.6,79,0.00,,,0.00,WSDL version 420,2013-05-05 12:17:00,
2013-05-05 08:22:00,71.9,64.4,29.80,NNE,13,2.0,4.3,77,0.00,,,0.00,WSDL version 420,2013-05-05 12:22:00,
2013-05-05 08:27:00,72.3,64.3,29.80,NW,312,2.0,4.9,75,0.00,,,0.00,WSDL version 420,2013-05-05 12:27:00,
2013-05-05 08:32:00,73.6,65.3,29.80,NNW,328,2.2,4.9,74,0.00,,,0.00,WSDL version 420,2013-05-05 12:32:00,
2013-05-05 08:37:00,75.1,65.5,29.80,WNW,286,1.6,3.8,69,0.00,,,0.00,WSDL version 420,2013-05-05 12:37:00,
2013-05-05 08:42:00,75.0,63.2,29.80,WNW,302,2.5,7.6,66,0.00,,,0.00,WSDL version 420,2013-05-05 12:42:00,
2013-05-05 08:47:00,75.9,63.4,29.80,West,281,1.3,7.6,64,0.00,,,0.00,WSDL version 420,2013-05-05 12:47:00,
2013-05-05 08:52:00,77.4,64.3,29.80,SSW,203,1.5,3.8,64,0.00,,,0.00,WSDL version 420,2013-05-05 12:52:00,
2013-05-05 08:57:00,79.3,65.0,29.80,NW,305,1.9,3.8,59,0.00,,,0.00,WSDL version 420,2013-05-05 12:57:00,
2013-05-05 09:02:00,80.6,64.5,29.83,NE,54,1.9,4.3,58,0.00,,,0.00,WSDL version 420,2013-05-05 13:02:00,
2013-05-05 09:07:00,80.1,62.6,29.83,NNW,335,1.5,4.3,56,0.00,,,0.00,WSDL version 420,2013-05-05 13:07:00,
2013-05-05 09:12:00,81.1,63.5,29.83,South,176,1.3,3.4,55,0.00,,,0.00,WSDL version 420,2013-05-05 13:12:00,
2013-05-05 09:17:00,82.6,63.5,29.80,WNW,297,1.3,3.1,51,0.00,,,0.00,WSDL version 420,2013-05-05 13:17:00,
2013-05-05 09:22:00,83.2,61.5,29.80,East,90,1.9,4.9,48,0.00,,,0.00,WSDL version 420,2013-05-05 13:22:00,
2013-05-05 09:27:00,84.0,62.6,29.80,SW,236,0.5,4.9,48,0.00,,,0.00,WSDL version 420,2013-05-05 13:27:00,
2013-05-05 09:32:00,83.6,62.0,29.80,NW,326,1.8,4.0,48,0.00,,,0.00,WSDL version 420,2013-05-05 13:32:00,
2013-05-05 09:37:00,80.5,59.3,29.80,South,174,2.2,3.8,49,0.00,,,0.00,WSDL version 420,2013-05-05 13:37:00,
2013-05-05 09:42:00,80.1,59.3,29.80,NW,311,2.0,4.7,50,0.00,,,0.00,WSDL version 420,2013-05-05 13:42:00,
2013-05-05 09:47:00,83.3,62.0,29.80,NNW,334,2.6,4.7,46,0.00,,,0.00,WSDL version 420,2013-05-05 13:47:00,
2013-05-05 09:52:00,82.0,59.2,29.80,NW,306,0.9,5.4,47,0.00,,,0.00,WSDL version 420,2013-05-05 13:52:00,
2013-05-05 09:57:00,83.3,61.5,29.80,SW,219,0.7,5.4,48,0.00,,,0.00,WSDL version 420,2013-05-05 13:57:00,
2013-05-05 10:02:00,81.8,60.2,29.80,NW,308,1.5,4.9,47,0.00,,,0.00,WSDL version 420,2013-05-05 14:02:00,
2013-05-05 10:07:00,81.3,59.8,29.80,North,357,1.9,4.9,48,0.00,,,0.00,WSDL version 420,2013-05-05 14:07:00,
2013-05-05 10:12:00,80.5,59.0,29.80,WNW,299,2.5,4.3,48,0.00,,,0.00,WSDL version 420,2013-05-05 14:12:00,
2013-05-05 10:17:00,80.8,59.3,29.80,ENE,64,2.0,4.9,48,0.00,,,0.00,WSDL version 420,2013-05-05 14:17:00,
2013-05-05 10:22:00,79.9,58.5,29.80,NNE,14,2.0,4.9,48,0.00,,,0.00,WSDL version 420,2013-05-05 14:22:00,
2013-05-05 10:27:00,80.7,59.8,29.80,NW,309,1.9,4.3,49,0.00,,,0.00,WSDL version 420,2013-05-05 14:27:00,
2013-05-05 10:32:00,82.1,61.7,29.80,NNW,332,2.3,5.4,49,0.00,,,0.00,WSDL version 420,2013-05-05 14:32:00,
2013-05-05 10:37:00,81.7,59.6,29.80,NNE,16,2.5,5.8,45,0.00,,,0.00,WSDL version 420,2013-05-05 14:37:00,
2013-05-05 10:42:00,80.7,58.5,29.80,SW,236,1.3,5.8,48,0.00,,,0.00,WSDL version 420,2013-05-05 14:42:00,
2013-05-05 10:47:00,80.2,58.3,29.83,NNE,19,2.7,4.9,48,0.00,,,0.00,WSDL version 420,2013-05-05 14:47:00,
2013-05-05 10:52:00,79.4,58.3,29.83,NW,309,1.5,4.9,49,0.00,,,0.00,WSDL version 420,2013-05-05 14:52:00,
2013-05-05 10:57:00,78.9,58.6,29.83,NW,315,1.3,2.7,50,0.00,,,0.00,WSDL version 420,2013-05-05 14:57:00,
2013-05-05 11:02:00,79.2,59.3,29.83,WSW,242,2.1,4.0,50,0.00,,,0.00,WSDL version 420,2013-05-05 15:02:00,
2013-05-05 11:07:00,78.8,58.3,29.83,NNW,340,2.3,5.4,49,0.00,,,0.00,WSDL version 420,2013-05-05 15:07:00,
2013-05-05 11:12:00,79.4,59.2,29.83,ENE,60,2.5,5.8,50,0.00,,,0.00,WSDL version 420,2013-05-05 15:12:00,
2013-05-05 11:17:00,79.9,59.5,29.83,WNW,289,1.0,5.8,51,0.00,,,0.00,WSDL version 420,2013-05-05 15:17:00,
2013-05-05 11:22:00,79.8,59.0,29.83,WNW,283,1.9,5.8,49,0.00,,,0.00,WSDL version 420,2013-05-05 15:22:00,
2013-05-05 11:27:00,79.9,59.0,29.83,NNW,346,1.5,3.8,49,0.00,,,0.00,WSDL version 420,2013-05-05 15:27:00,
2013-05-05 11:32:00,79.9,58.8,29.83,North,350,1.0,3.8,48,0.00,,,0.00,WSDL version 420,2013-05-05 15:32:00,
2013-05-05 11:37:00,80.4,59.3,29.83,North,354,0.8,3.6,49,0.00,,,0.00,WSDL version 420,2013-05-05 15:37:00,
2013-05-05 11:42:00,80.4,58.7,29.83,West,270,2.0,3.8,47,0.00,,,0.00,WSDL version 420,2013-05-05 15:42:00,
2013-05-05 11:47:00,80.4,58.6,29.83,SSW,203,1.4,3.8,48,0.00,,,0.00,WSDL version 420,2013-05-05 15:47:00,
2013-05-05 11:52:00,81.2,59.1,29.83,North,350,2.0,4.0,47,0.00,,,0.00,WSDL version 420,2013-05-05 15:52:00,
2013-05-05 11:57:00,80.2,57.7,29.83,South,191,2.1,4.0,47,0.00,,,0.00,WSDL version 420,2013-05-05 15:57:00,
2013-05-05 12:02:00,80.0,57.5,29.83,NNW,334,1.9,4.7,46,0.00,,,0.00,WSDL version 420,2013-05-05 16:02:00,
2013-05-05 12:07:00,80.7,58.2,29.83,NW,315,2.9,4.7,46,0.00,,,0.00,WSDL version 420,2013-05-05 16:07:00,
2013-05-05 12:12:00,81.6,59.5,29.83,West,278,3.3,5.8,47,0.00,,,0.00,WSDL version 420,2013-05-05 16:12:00,
2013-05-05 12:17:00,81.1,58.2,29.83,NNE,31,2.5,5.8,45,0.00,,,0.00,WSDL version 420,2013-05-05 16:17:00,
2013-05-05 12:22:00,81.4,58.9,29.83,NNE,19,1.6,5.4,46,0.00,,,0.00,WSDL version 420,2013-05-05 16:22:00,
2013-05-05 12:27:00,82.0,59.1,29.83,North,354,1.3,4.9,46,0.00,,,0.00,WSDL version 420,2013-05-05 16:27:00,
2013-05-05 12:32:00,82.7,59.2,29.80,NNE,28,1.8,4.9,45,0.00,,,0.00,WSDL version 420,2013-05-05 16:32:00,
2013-05-05 12:37:00,82.5,58.2,29.80,NNW,341,2.6,5.8,43,0.00,,,0.00,WSDL version 420,2013-05-05 16:37:00,
2013-05-05 12:42:00,82.3,57.8,29.80,North,4,3.0,7.2,43,0.00,,,0.00,WSDL version 420,2013-05-05 16:42:00,
2013-05-05 12:47:00,82.5,57.4,29.80,West,266,1.2,7.2,42,0.00,,,0.00,WSDL version 420,2013-05-05 16:47:00,
2013-05-05 12:52:00,82.7,57.8,29.80,East,96,1.4,3.8,43,0.00,,,0.00,WSDL version 420,2013-05-05 16:52:00,
2013-05-05 12:57:00,82.9,57.8,29.80,NE,51,1.7,4.0,43,0.00,,,0.00,WSDL version 420,2013-05-05 16:57:00,
2013-05-05 13:02:00,82.6,58.0,29.80,North,11,1.1,4.0,43,0.00,,,0.00,WSDL version 420,2013-05-05 17:02:00,
2013-05-05 13:07:00,82.7,58.4,29.80,NNE,23,1.5,2.7,45,0.00,,,0.00,WSDL version 420,2013-05-05 17:07:00,
2013-05-05 13:12:00,82.4,58.0,29.80,WSW,251,2.0,3.1,44,0.00,,,0.00,WSDL version 420,2013-05-05 17:12:00,
2013-05-05 13:17:00,81.6,57.1,29.80,NW,326,2.0,5.6,43,0.00,,,0.00,WSDL version 420,2013-05-05 17:17:00,
2013-05-05 13:22:00,82.2,57.6,29.80,SW,230,2.0,5.6,44,0.00,,,0.00,WSDL version 420,2013-05-05 17:22:00,
2013-05-05 13:27:00,83.7,59.1,29.80,SW,218,0.3,3.1,44,0.00,,,0.00,WSDL version 420,2013-05-05 17:27:00,
2013-05-05 13:32:00,84.5,58.7,29.80,WNW,289,1.2,3.1,41,0.00,,,0.00,WSDL version 420,2013-05-05 17:32:00,
2013-05-05 13:37:00,84.4,58.3,29.80,NNE,29,1.5,3.6,41,0.00,,,0.00,WSDL version 420,2013-05-05 17:37:00,
2013-05-05 13:42:00,84.2,58.1,29.80,WNW,289,0.4,3.6,41,0.00,,,0.00,WSDL version 420,2013-05-05 17:42:00,
2013-05-05 13:47:00,83.6,57.9,29.80,WNW,299,1.0,3.1,42,0.00,,,0.00,WSDL version 420,2013-05-05 17:47:00,
2013-05-05 13:52:00,83.2,57.8,29.80,NNW,346,1.8,4.0,42,0.00,,,0.00,WSDL version 420,2013-05-05 17:52:00,
2013-05-05 13:57:00,83.9,57.7,29.80,West,259,2.4,5.4,41,0.00,,,0.00,WSDL version 420,2013-05-05 17:57:00,
2013-05-05 14:02:00,84.8,58.7,29.77,NW,308,1.9,5.4,41,0.00,,,0.00,WSDL version 420,2013-05-05 18:02:00,
2013-05-05 14:07:00,84.9,58.6,29.77,NNW,344,1.4,4.0,41,0.00,,,0.00,WSDL version 420,2013-05-05 18:07:00,
2013-05-05 14:12:00,83.8,57.4,29.77,South,180,1.8,4.0,41,0.00,,,0.00,WSDL version 420,2013-05-05 18:12:00,
2013-05-05 14:17:00,84.2,57.7,29.77,NNW,338,2.6,5.6,41,0.00,,,0.00,WSDL version 420,2013-05-05 18:17:00,
2013-05-05 14:22:00,83.9,56.9,29.77,ENE,76,2.0,5.6,40,0.00,,,0.00,WSDL version 420,2013-05-05 18:22:00,
2013-05-05 14:27:00,83.9,57.2,29.77,NNE,26,3.4,4.3,40,0.00,,,0.00,WSDL version 420,2013-05-05 18:27:00,
2013-05-05 14:32:00,84.5,57.8,29.80,West,260,2.2,4.9,40,0.00,,,0.00,WSDL version 420,2013-05-05 18:32:00,
2013-05-05 14:37:00,84.8,57.6,29.80,North,354,2.2,4.9,41,0.00,,,0.00,WSDL version 420,2013-05-05 18:37:00,
2013-05-05 14:42:00,85.2,58.2,29.80,ESE,113,1.2,3.8,40,0.00,,,0.00,WSDL version 420,2013-05-05 18:42:00,
2013-05-05 14:47:00,85.6,58.5,29.80,NNE,15,1.4,3.8,39,0.00,,,0.00,WSDL version 420,2013-05-05 18:47:00,
2013-05-05 14:52:00,85.4,57.5,29.80,NNE,14,2.2,4.0,38,0.00,,,0.00,WSDL version 420,2013-05-05 18:52:00,
2013-05-05 14:57:00,85.1,56.9,29.80,WSW,255,0.1,4.0,38,0.00,,,0.00,WSDL version 420,2013-05-05 18:57:00,
2013-05-05 15:02:00,85.3,57.5,29.80,SSE,167,1.1,3.4,39,0.00,,,0.00,WSDL version 420,2013-05-05 19:02:00,
2013-05-05 15:07:00,85.5,57.2,29.80,NNW,334,1.9,3.6,38,0.00,,,0.00,WSDL version 420,2013-05-05 19:07:00,
2013-05-05 15:12:00,85.3,57.1,29.80,South,177,1.5,3.6,39,0.00,,,0.00,WSDL version 420,2013-05-05 19:12:00,
2013-05-05 15:17:00,86.2,57.6,29.80,North,356,2.1,3.4,38,0.00,,,0.00,WSDL version 420,2013-05-05 19:17:00,
2013-05-05 15:22:00,85.8,55.8,29.80,NNE,25,1.2,3.6,37,0.00,,,0.00,WSDL version 420,2013-05-05 19:22:00,
2013-05-05 15:27:00,86.0,56.1,29.80,NW,315,2.4,4.0,35,0.00,,,0.00,WSDL version 420,2013-05-05 19:27:00,
2013-05-05 15:32:00,85.6,54.6,29.77,NW,311,1.5,4.0,33,0.00,,,0.00,WSDL version 420,2013-05-05 19:32:00,
2013-05-05 15:37:00,85.1,54.0,29.77,WSW,257,0.0,2.5,35,0.00,,,0.00,WSDL version 420,2013-05-05 19:37:00,
2013-05-05 15:42:00,85.7,54.6,29.77,WNW,296,1.9,2.9,34,0.00,,,0.00,WSDL version 420,2013-05-05 19:42:00,
2013-05-05 15:47:00,85.8,54.0,29.80,NW,306,1.1,2.9,34,0.00,,,0.00,WSDL version 420,2013-05-05 19:47:00,
2013-05-05 15:52:00,86.2,54.2,29.80,NW,311,2.0,4.5,32,0.00,,,0.00,WSDL version 420,2013-05-05 19:52:00,
2013-05-05 15:57:00,86.2,53.6,29.80,SSE,154,0.4,4.5,34,0.00,,,0.00,WSDL version 420,2013-05-05 19:57:00,
2013-05-05 16:02:00,87.0,54.5,29.77,SW,228,1.3,3.1,33,0.00,,,0.00,WSDL version 420,2013-05-05 20:02:00,
2013-05-05 16:07:00,86.9,53.7,29.77,North,354,1.8,5.4,32,0.00,,,0.00,WSDL version 420,2013-05-05 20:07:00,
2013-05-05 16:12:00,86.5,52.5,29.77,SE,128,1.7,5.4,32,0.00,,,0.00,WSDL version 420,2013-05-05 20:12:00,
2013-05-05 16:17:00,86.2,52.1,29.77,SSE,149,2.0,4.3,31,0.00,,,0.00,WSDL version 420,2013-05-05 20:17:00,
2013-05-05 16:22:00,86.7,53.4,29.77,SW,217,2.2,4.3,32,0.00,,,0.00,WSDL version 420,2013-05-05 20:22:00,
2013-05-05 16:27:00,87.1,53.7,29.77,NE,35,1.2,4.0,32,0.00,,,0.00,WSDL version 420,2013-05-05 20:27:00,
2013-05-05 16:32:00,87.0,53.2,29.77,West,270,1.6,4.9,31,0.00,,,0.00,WSDL version 420,2013-05-05 20:32:00,
2013-05-05 16:37:00,86.7,52.5,29.77,West,263,1.5,4.9,31,0.00,,,0.00,WSDL version 420,2013-05-05 20:37:00,
2013-05-05 16:42:00,86.5,52.5,29.77,South,174,1.3,3.4,32,0.00,,,0.00,WSDL version 420,2013-05-05 20:42:00,
2013-05-05 16:47:00,86.8,53.1,29.80,SW,236,1.8,4.0,31,0.00,,,0.00,WSDL version 420,2013-05-05 20:47:00,
2013-05-05 16:52:00,86.4,51.9,29.80,NW,319,2.0,4.0,30,0.00,,,0.00,WSDL version 420,2013-05-05 20:52:00,
2013-05-05 16:57:00,86.3,51.7,29.80,WNW,298,1.2,3.1,31,0.00,,,0.00,WSDL version 420,2013-05-05 20:57:00,
2013-05-05 17:02:00,85.9,51.2,29.80,NE,41,1.9,3.4,31,0.00,,,0.00,WSDL version 420,2013-05-05 21:02:00,
2013-05-05 17:07:00,85.9,50.9,29.80,SW,218,1.5,3.8,30,0.00,,,0.00,WSDL version 420,2013-05-05 21:07:00,
2013-05-05 17:12:00,85.4,50.7,29.80,NNE,13,1.9,3.8,31,0.00,,,0.00,WSDL version 420,2013-05-05 21:12:00,
2013-05-05 17:17:00,85.4,50.9,29.80,NW,315,1.5,3.6,30,0.00,,,0.00,WSDL version 420,2013-05-05 21:17:00,
2013-05-05 17:22:00,85.1,50.3,29.80,West,270,1.3,2.9,30,0.00,,,0.00,WSDL version 420,2013-05-05 21:22:00,
2013-05-05 17:27:00,85.0,50.8,29.80,WNW,293,1.5,3.8,31,0.00,,,0.00,WSDL version 420,2013-05-05 21:27:00,
2013-05-05 17:32:00,84.6,49.8,29.80,West,281,1.0,4.3,30,0.00,,,0.00,WSDL version 420,2013-05-05 21:32:00,
2013-05-05 17:37:00,84.3,49.5,29.80,SW,218,0.9,4.3,30,0.00,,,0.00,WSDL version 420,2013-05-05 21:37:00,
2013-05-05 17:42:00,83.8,49.1,29.80,ESE,105,1.2,3.6,30,0.00,,,0.00,WSDL version 420,2013-05-05 21:42:00,
2013-05-05 17:47:00,83.5,48.9,29.80,NW,304,0.9,3.6,30,0.00,,,0.00,WSDL version 420,2013-05-05 21:47:00,
2013-05-05 17:52:00,83.0,49.1,29.80,SE,146,1.7,3.1,31,0.00,,,0.00,WSDL version 420,2013-05-05 21:52:00,
2013-05-05 17:57:00,82.5,48.4,29.80,ENE,73,1.3,3.1,31,0.00,,,0.00,WSDL version 420,2013-05-05 21:57:00,
2013-05-05 18:02:00,82.0,48.6,29.80,WSW,252,0.7,2.9,32,0.00,,,0.00,WSDL version 420,2013-05-05 22:02:00,
2013-05-05 18:07:00,81.4,48.8,29.80,West,270,0.9,1.6,32,0.00,,,0.00,WSDL version 420,2013-05-05 22:07:00,
2013-05-05 18:12:00,80.9,48.3,29.80,West,270,0.9,1.6,32,0.00,,,0.00,WSDL version 420,2013-05-05 22:12:00,
2013-05-05 18:17:00,80.6,47.8,29.80,West,270,0.9,1.3,32,0.00,,,0.00,WSDL version 420,2013-05-05 22:17:00,
2013-05-05 18:22:00,80.1,47.6,29.80,North,0,0.0,1.3,32,0.00,,,0.00,WSDL version 420,2013-05-05 22:22:00,
2013-05-05 18:27:00,79.6,47.2,29.80,North,0,0.0,1.3,32,0.00,,,0.00,WSDL version 420,2013-05-05 22:27:00,
2013-05-05 18:32:00,79.2,46.8,29.80,North,-999,-999.0,-999.0,32,0.00,,,0.00,WSDL version 420,2013-05-05 22:32:00,
2013-05-05 18:37:00,78.8,46.5,29.80,SW,225,1.3,1.3,32,0.00,,,0.00,WSDL version 420,2013-05-05 22:37:00,
2013-05-05 18:42:00,78.5,47.1,29.80,North,0,0.0,1.1,33,0.00,,,0.00,WSDL version 420,2013-05-05 22:42:00,
2013-05-05 18:47:00,78.2,46.8,29.80,SW,225,1.3,1.3,33,0.00,,,0.00,WSDL version 420,2013-05-05 22:47:00,
2013-05-05 18:52:00,77.8,46.8,29.80,North,0,0.0,1.1,34,0.00,,,0.00,WSDL version 420,2013-05-05 22:52:00,
2013-05-05 18:57:00,77.4,46.4,29.80,North,0,0.0,1.1,33,0.00,,,0.00,WSDL version 420,2013-05-05 22:57:00,
2013-05-05 19:02:00,77.4,46.6,29.80,North,-999,-999.0,-999.0,33,0.00,,,0.00,WSDL version 420,2013-05-05 23:02:00,
2013-05-05 19:07:00,77.0,46.3,29.80,West,270,0.0,0.0,34,0.00,,,0.00,WSDL version 420,2013-05-05 23:07:00,
2013-05-05 19:12:00,76.6,47.1,29.80,WNW,296,1.0,2.9,36,0.00,,,0.00,WSDL version 420,2013-05-05 23:12:00,
2013-05-05 19:17:00,76.0,46.4,29.80,SW,231,0.0,2.9,35,0.00,,,0.00,WSDL version 420,2013-05-05 23:17:00,
2013-05-05 19:22:00,75.7,46.1,29.80,West,281,0.4,1.6,35,0.00,,,0.00,WSDL version 420,2013-05-05 23:22:00,
2013-05-05 19:27:00,75.5,45.9,29.80,West,270,0.1,1.6,35,0.00,,,0.00,WSDL version 420,2013-05-05 23:27:00,
2013-05-05 19:32:00,75.1,45.6,29.77,WSW,248,0.0,1.6,35,0.00,,,0.00,WSDL version 420,2013-05-05 23:32:00,
2013-05-05 19:37:00,74.8,45.7,29.77,West,270,0.0,1.1,36,0.00,,,0.00,WSDL version 420,2013-05-05 23:37:00,
2013-05-05 19:42:00,74.3,45.7,29.77,SSW,203,0.0,1.1,36,0.00,,,0.00,WSDL version 420,2013-05-05 23:42:00,
2013-05-05 19:47:00,74.0,45.4,29.80,SSW,203,0.0,0.0,36,0.00,,,0.00,WSDL version 420,2013-05-05 23:47:00,
2013-05-05 19:52:00,73.6,45.0,29.80,SSW,203,0.0,0.0,36,0.00,,,0.00,WSDL version 420,2013-05-05 23:52:00,
2013-05-05 19:57:00,73.2,45.1,29.80,SSW,203,0.0,0.0,36,0.00,,,0.00,WSDL version 420,2013-05-05 23:57:00,
2013-05-05 20:02:00,72.8,44.8,29.80,SSW,203,0.0,0.0,37,0.00,,,0.00,WSDL version 420,2013-05-06 00:02:00,
2013-05-05 20:07:00,72.3,44.6,29.80,SSW,203,0.0,0.0,37,0.00,,,0.00,WSDL version 420,2013-05-06 00:07:00,
2013-05-05 20:12:00,71.9,44.2,29.80,SSW,203,0.0,0.0,37,0.00,,,0.00,WSDL version 420,2013-05-06 00:12:00,
2013-05-05 20:17:00,71.4,44.0,29.80,SSW,203,0.0,0.0,37,0.00,,,0.00,WSDL version 420,2013-05-06 00:17:00,
2013-05-05 20:22:00,71.0,43.9,29.80,SSW,203,0.0,0.0,38,0.00,,,0.00,WSDL version 420,2013-05-06 00:22:00,
2013-05-05 20:27:00,70.7,43.9,29.80,SSW,203,0.0,0.0,38,0.00,,,0.00,WSDL version 420,2013-05-06 00:27:00,
2013-05-05 20:32:00,70.5,44.1,29.83,SSW,203,0.0,0.0,39,0.00,,,0.00,WSDL version 420,2013-05-06 00:32:00,
2013-05-05 20:37:00,70.2,45.2,29.83,SSW,203,0.0,0.0,40,0.00,,,0.00,WSDL version 420,2013-05-06 00:37:00,
2013-05-05 20:42:00,70.0,45.5,29.83,SSW,203,0.0,0.0,42,0.00,,,0.00,WSDL version 420,2013-05-06 00:42:00,
2013-05-05 20:47:00,69.7,46.5,29.83,SSW,203,0.0,0.0,44,0.00,,,0.00,WSDL version 420,2013-05-06 00:47:00,
2013-05-05 20:52:00,69.5,46.6,29.83,SSW,203,0.0,0.0,44,0.00,,,0.00,WSDL version 420,2013-05-06 00:52:00,
2013-05-05 20:57:00,69.1,46.3,29.83,SSW,203,0.0,0.0,44,0.00,,,0.00,WSDL version 420,2013-05-06 00:57:00,
2013-05-05 21:02:00,68.9,46.9,29.83,SSW,203,0.0,0.0,47,0.00,,,0.00,WSDL version 420,2013-05-06 01:02:00,
2013-05-05 21:07:00,68.6,47.8,29.83,SSW,203,0.0,0.0,48,0.00,,,0.00,WSDL version 420,2013-05-06 01:07:00,
2013-05-05 21:12:00,68.3,48.4,29.83,SSW,203,0.0,0.0,49,0.00,,,0.00,WSDL version 420,2013-05-06 01:12:00,
2013-05-05 21:17:00,68.0,48.6,29.85,SSW,203,0.0,0.0,50,0.00,,,0.00,WSDL version 420,2013-05-06 01:17:00,
2013-05-05 21:22:00,67.7,49.4,29.85,SSW,203,0.0,0.0,53,0.00,,,0.00,WSDL version 420,2013-05-06 01:22:00,
2013-05-05 21:27:00,67.6,49.5,29.85,SSW,203,0.0,0.0,52,0.00,,,0.00,WSDL version 420,2013-05-06 01:27:00,
2013-05-05 21:32:00,67.4,49.9,29.85,SSW,203,0.0,0.0,53,0.00,,,0.00,WSDL version 420,2013-05-06 01:32:00,
2013-05-05 21:37:00,67.2,49.8,29.85,SSW,203,0.0,0.0,53,0.00,,,0.00,WSDL version 420,2013-05-06 01:37:00,
2013-05-05 21:42:00,67.1,49.9,29.85,SSW,203,0.0,0.0,54,0.00,,,0.00,WSDL version 420,2013-05-06 01:42:00,
2013-05-05 21:47:00,66.9,50.1,29.85,SSW,203,0.0,0.0,55,0.00,,,0.00,WSDL version 420,2013-05-06 01:47:00,
2013-05-05 21:52:00,66.9,50.7,29.85,SSW,203,0.0,0.0,57,0.00,,,0.00,WSDL version 420,2013-05-06 01:52:00,
2013-05-05 21:57:00,66.7,51.3,29.85,SSW,203,0.0,0.0,58,0.00,,,0.00,WSDL version 420,2013-05-06 01:57:00,
2013-05-05 22:02:00,66.7,51.9,29.85,SSW,203,0.0,0.0,59,0.00,,,0.00,WSDL version 420,2013-05-06 02:02:00,
2013-05-05 22:07:00,66.6,52.0,29.85,SSW,203,0.0,0.0,60,0.00,,,0.00,WSDL version 420,2013-05-06 02:07:00,
2013-05-05 22:12:00,66.3,52.0,29.85,SSW,203,0.0,0.0,60,0.00,,,0.00,WSDL version 420,2013-05-06 02:12:00,
2013-05-05 22:17:00,66.1,52.4,29.83,SSW,203,0.0,0.0,62,0.00,,,0.00,WSDL version 420,2013-05-06 02:17:00,
2013-05-05 22:22:00,66.0,52.8,29.83,SSW,203,0.0,0.0,63,0.00,,,0.00,WSDL version 420,2013-05-06 02:22:00,
2013-05-05 22:27:00,65.9,53.1,29.83,SSW,203,0.0,0.0,63,0.00,,,0.00,WSDL version 420,2013-05-06 02:27:00,
2013-05-05 22:32:00,65.6,52.8,29.83,SSW,203,0.0,0.0,63,0.00,,,0.00,WSDL version 420,2013-05-06 02:32:00,
2013-05-05 22:37:00,65.4,52.5,29.83,SSW,203,0.0,0.0,63,0.00,,,0.00,WSDL version 420,2013-05-06 02:37:00,
2013-05-05 22:42:00,65.1,51.7,29.83,SSW,203,0.0,0.0,61,0.00,,,0.00,WSDL version 420,2013-05-06 02:42:00,
2013-05-05 22:47:00,64.9,51.2,29.83,SSW,203,0.0,0.0,61,0.00,,,0.00,WSDL version 420,2013-05-06 02:47:00,
2013-05-05 22:52:00,64.9,51.6,29.83,SSW,203,0.0,0.0,62,0.00,,,0.00,WSDL version 420,2013-05-06 02:52:00,
2013-05-05 22:57:00,64.8,51.7,29.83,SSW,203,0.0,0.0,63,0.00,,,0.00,WSDL version 420,2013-05-06 02:57:00,
2013-05-05 23:02:00,64.8,52.2,29.85,SSW,203,0.0,0.0,64,0.00,,,0.00,WSDL version 420,2013-05-06 03:02:00,
2013-05-05 23:07:00,64.8,52.3,29.85,SSW,203,0.0,0.0,64,0.00,,,0.00,WSDL version 420,2013-05-06 03:07:00,
2013-05-05 23:12:00,64.6,52.0,29.85,SSW,203,0.0,0.0,63,0.00,,,0.00,WSDL version 420,2013-05-06 03:12:00,
2013-05-05 23:17:00,64.4,51.1,29.85,SSW,203,0.0,0.0,62,0.00,,,0.00,WSDL version 420,2013-05-06 03:17:00,
2013-05-05 23:22:00,64.3,50.8,29.85,SSW,203,0.0,0.0,62,0.00,,,0.00,WSDL version 420,2013-05-06 03:22:00,
2013-05-05 23:27:00,64.2,50.7,29.85,SSW,203,0.0,0.0,61,0.00,,,0.00,WSDL version 420,2013-05-06 03:27:00,
2013-05-05 23:32:00,64.2,50.6,29.85,SSW,203,0.0,0.0,62,0.00,,,0.00,WSDL version 420,2013-05-06 03:32:00,
2013-05-05 23:37:00,64.2,50.9,29.85,SSW,203,0.0,0.0,62,0.00,,,0.00,WSDL version 420,2013-05-06 03:37:00,
2013-05-05 23:42:00,64.2,50.6,29.85,SSW,203,0.0,0.0,61,0.00,,,0.00,WSDL version 420,2013-05-06 03:42:00,
2013-05-05 23:47:00,64.4,50.0,29.85,SSW,203,0.0,0.0,59,0.00,,,0.00,WSDL version 420,2013-05-06 03:47:00,
2013-05-05 23:52:00,64.6,50.0,29.85,SSW,203,0.0,0.0,59,0.00,,,0.00,WSDL version 420,2013-05-06 03:52:00,
2013-05-05 23:57:00,64.8,49.9,29.85,West,270,0.0,0.0,58,0.00,,,0.00,WSDL version 420,2013-05-06 03:57:00,